FW7233 Weather Reports


time (UTC)temp
C
wind
direction
speed
KPH
gust
KPH
rain 1hr
cm
rain 24hr
cm
rain mn
cm
humidity
%
barometer
mb
20260506224611 13 186 0.0 3.2 0.05 0.25 0.05 99 1007.7
20260506222610 13 145 0.0 0.0 0.05 0.25 0.03 99 1007.2
20260506221611 13 145 0.0 0.0 0.03 0.25 0.00 99 1007.5
20260506220612 13 144 0.0 0.0 0.03 0.25 0.00 99 1007.5
20260506215608 13 131 0.0 0.0 0.05 0.23 0.25 99 1008.1
20260506214610 13 137 0.0 3.2 0.13 0.23 0.25 99 1007.9
20260506213609 13 195 1.6 3.2 0.20 0.23 0.25 98 1007.3
20260506212607 13 116 0.0 4.8 0.23 0.23 0.23 98 1007.6
20260506210607 14 30 0.0 1.6 0.23 0.23 0.23 96 1006.8
20260506205608 14 52 0.0 11.3 0.20 0.00 0.20 94 1007.2
20260506204607 15 220 3.2 9.7 0.13 0.00 0.10 91 1007.5
20260506203608 15 249 3.2 3.2 0.05 0.00 0.03 85 1006.7
20260506201609 16 142 0.0 0.0 0.00 0.00 0.00 78 1006.1
20260506200608 16 142 0.0 0.0 0.00 0.00 0.00 76 1006.3
20260506195609 16 143 0.0 0.0 0.00 0.00 0.00 75 1006.4
20260506194610 16 128 0.0 1.6 0.00 0.00 0.00 73 1006.2
20260506193608 17 135 0.0 6.4 0.00 0.00 0.00 72 1006.4
20260506191609 16 138 0.0 0.0 0.00 0.00 0.00 78 1006.6
20260506190608 16 144 0.0 0.0 0.00 0.00 0.00 77 1006.4
20260506185610 16 140 0.0 0.0 0.00 0.00 0.00 78 1006.0
20260506184608 16 133 0.0 0.0 0.00 0.00 0.00 75 1005.9
20260506182608 17 138 0.0 0.0 0.00 0.00 0.00 72 1006.1
20260506181608 17 146 0.0 1.6 0.00 0.00 0.00 70 1005.8
20260506180608 18 131 0.0 3.2 0.00 0.00 0.00 66 1005.8
20260506175609 18 153 0.0 1.6 0.00 0.00 0.00 64 1005.8
20260506174608 20 135 0.0 1.6 0.00 0.00 0.00 60 1005.6
20260506172608 20 142 0.0 3.2 0.00 0.00 0.00 57 1005.8
20260506170621 21 130 0.0 4.8 0.00 0.00 0.00 53 1005.7
20260506165607 22 209 6.4 6.4 0.00 0.00 0.00 50 1005.7
20260506164608 22 65 1.6 11.3 0.00 0.00 0.00 51 1005.9
20260506162608 23 275 1.6 6.4 0.00 0.00 0.00 50 1005.9
20260506161608 23 263 3.2 11.3 0.00 0.00 0.00 50 1006.0
20260506160608 23 130 3.2 9.7 0.00 0.00 0.00 49 1005.9
20260506155608 22 132 1.6 9.7 0.00 0.00 0.00 51 1006.1
20260506154608 23 135 4.8 11.3 0.00 0.00 0.00 48 1005.9
20260506153608 23 257 4.8 14.5 0.00 0.00 0.00 48 1006.0
20260506152607 23 214 8.0 11.3 0.00 0.00 0.00 49 1005.8
20260506151608 23 164 1.6 12.9 0.00 0.00 0.00 50 1006.0
20260506150607 23 134 6.4 14.5 0.00 0.00 0.00 48 1006.1
20260506145608 22 154 8.0 16.1 0.00 0.00 0.00 50 1005.9
20260506144610 22 253 6.4 12.9 0.00 0.00 0.00 51 1005.9
20260506143608 23 61 1.6 6.4 0.00 0.00 0.00 54 1006.0
20260506141608 23 200 6.4 12.9 0.00 0.00 0.00 55 1006.1
20260506134607 23 66 0.0 11.3 0.00 0.00 0.00 58 1006.0
20260506132607 22 121 3.2 9.7 0.00 0.00 0.00 57 1006.3
20260506131608 22 271 3.2 14.5 0.00 0.00 0.00 59 1006.0
20260506130609 22 140 0.0 12.9 0.00 0.00 0.00 59 1006.0
20260506125608 22 122 1.6 16.1 0.00 0.00 0.00 58 1006.3
20260506124608 23 136 14.5 20.9 0.00 0.00 0.00 56 1006.0
20260506123607 23 177 3.2 17.7 0.00 0.00 0.00 56 1006.0
20260506122608 22 248 6.4 12.9 0.00 0.00 0.00 58 1006.2
20260506121608 21 148 4.8 12.9 0.00 0.00 0.00 60 1006.2
20260506120614 22 270 9.7 11.3 0.00 0.00 0.00 59 1006.0
20260506115608 22 242 8.0 12.9 0.00 0.00 0.00 60 1006.1
20260506113607 22 139 4.8 11.3 0.00 0.00 0.00 62 1006.3
20260506112607 21 188 3.2 9.7 0.00 0.00 0.00 64 1006.4
20260506111607 21 221 1.6 11.3 0.00 0.00 0.00 64 1006.4
20260506110615 20 137 1.6 16.1 0.00 0.00 0.00 66 1006.1
20260506105610 21 149 6.4 11.3 0.00 0.00 0.00 64 1006.1
20260506104608 21 185 1.6 11.3 0.00 0.00 0.00 62 1006.2
20260506103607 21 169 1.6 14.5 0.00 0.00 0.00 61 1005.7
20260506102608 20 206 3.2 14.5 0.00 0.00 0.00 65 1005.9
20260506101608 20 138 0.0 14.5 0.00 0.00 0.00 65 1006.0
20260506100609 21 232 6.4 12.9 0.00 0.00 0.00 64 1006.0
20260506094611 21 234 6.4 16.1 0.00 0.00 0.00 63 1005.8
20260506093608 21 279 6.4 16.1 0.00 0.00 0.00 63 1005.5
20260506092608 21 105 1.6 14.5 0.00 0.00 0.00 63 1005.8
20260506091608 21 163 6.4 11.3 0.00 0.00 0.00 62 1005.4
20260506090607 22 201 3.2 22.5 0.00 0.00 0.00 62 1005.3
20260506085608 21 283 4.8 17.7 0.00 0.00 0.00 61 1005.5
20260506083608 21 38 3.2 12.9 0.00 0.00 0.00 64 1005.4
20260506082607 20 101 4.8 14.5 0.00 0.00 0.00 65 1005.6
20260506081608 20 141 3.2 24.1 0.00 0.00 0.00 68 1005.5
20260506080607 20 176 3.2 12.9 0.00 0.00 0.00 66 1005.4
20260506071607 18 221 3.2 14.5 0.00 0.00 0.00 69 1005.2
20260506070608 18 167 4.8 14.5 0.00 0.00 0.00 70 1005.0
20260506044608 11 159 8.0 9.7 0.00 0.00 0.00 99 1005.3
20260506043608 11 133 0.0 3.2 0.00 0.00 0.00 99 1005.5
20260506042608 10 141 0.0 0.0 0.00 0.00 0.00 99 1005.2
20260506041608 10 138 0.0 1.6 0.00 0.00 0.00 99 1005.3
20260506040608 10 136 0.0 1.6 0.00 0.00 0.00 99 1005.2
20260506034608 8 140 0.0 0.0 0.00 0.00 0.00 99 1005.5
20260506033607 8 131 0.0 0.0 0.00 0.00 0.00 99 1005.7
20260506032608 8 137 0.0 0.0 0.00 0.00 0.00 99 1005.8
20260506031608 8 141 0.0 0.0 0.00 0.00 0.00 99 1005.6
20260506030607 8 140 0.0 0.0 0.00 0.00 0.00 99 1005.8
20260506025608 8 140 0.0 0.0 0.00 0.00 0.00 99 1005.8
20260506024607 8 137 0.0 0.0 0.00 0.00 0.00 99 1005.8
20260506023608 8 133 0.0 0.0 0.00 0.00 0.00 99 1005.7
20260506022607 8 137 0.0 0.0 0.00 0.00 0.00 99 1005.8
20260506021607 8 140 0.0 0.0 0.00 0.00 0.00 99 1006.2
20260506020609 9 135 0.0 0.0 0.00 0.00 0.00 99 1006.2
20260506014608 9 141 0.0 1.6 0.00 0.00 0.00 99 1006.2
20260506013615 9 146 0.0 0.0 0.00 0.00 0.00 99 1006.2
20260506012608 9 141 0.0 0.0 0.00 0.00 0.00 99 1006.0
20260506011607 9 136 0.0 1.6 0.00 0.00 0.00 99 1006.3
20260506010607 9 157 1.6 1.6 0.00 0.00 0.00 99 1006.1
20260506005607 9 113 0.0 1.6 0.00 0.00 0.00 99 1006.0
20260506004608 9 139 0.0 0.0 0.00 0.00 0.00 99 1006.1
20260506002607 10 143 0.0 0.0 0.00 0.00 0.00 98 1006.4
20260506001608 10 137 0.0 0.0 0.00 0.00 0.00 98 1006.2
20260506000608 10 146 0.0 0.0 0.00 0.00 0.00 98 1006.5
20260505234607 10 149 0.0 0.0 0.00 0.00 0.00 97 1006.5
20260505232609 10 138 0.0 1.6 0.00 0.00 0.00 96 1006.5
20260505231608 11 138 0.0 0.0 0.00 0.00 0.00 96 1006.7
20260505230607 11 138 0.0 0.0 0.00 0.00 0.00 96 1006.7
20260505225608 11 147 0.0 0.0 0.00 0.00 0.00 95 1006.8